owner,sensor,date,latitude,longitude,vertical_datum,wind_speed,wind_to_direction,wind_speed_of_gust,qcFlag 
NDBC,ioos:station:NOAA.NDBC:SANF1:1,2015-01-01T00:50:00Z,24.4560,-81.8770,45.4,6.2,30.0,7.2,'1111122,1111122,1111122' 
NDBC,ioos:station:NOAA.NDBC:SANF1:1,2015-01-01T01:50:00Z,24.4560,-81.8770,45.4,6.2,30.0,7.2,'1111122,1111122,1111122' 
NDBC,ioos:station:NOAA.NDBC:SANF1:1,2015-01-01T02:50:00Z,24.4560,-81.8770,45.4,6.7,30.0,7.2,'1111122,1111122,1111122' 
NDBC,ioos:station:NOAA.NDBC:SANF1:1,2015-01-01T03:50:00Z,24.4560,-81.8770,45.4,6.2,40.0,7.2,'1111122,1111122,1111122' 
NDBC,ioos:station:NOAA.NDBC:SANF1:1,2015-01-01T04:50:00Z,24.4560,-81.8770,45.4,6.7,50.0,7.2,'1111122,1111122,1111122' 
NDBC,ioos:station:NOAA.NDBC:SANF1:1,2015-01-01T05:50:00Z,24.4560,-81.8770,45.4,6.2,30.0,6.7,'1111122,1111122,1111122' 
NDBC,ioos:station:NOAA.NDBC:SANF1:1,2015-01-01T06:50:00Z,24.4560,-81.8770,45.4,5.7,40.0,6.2,'1111122,1111122,1111122' 
NDBC,ioos:station:NOAA.NDBC:SANF1:1,2015-01-01T07:50:00Z,24.4560,-81.8770,45.4,6.2,40.0,7.2,'1111122,1111122,1111122' 
NDBC,ioos:station:NOAA.NDBC:SANF1:1,2015-01-01T08:50:00Z,24.4560,-81.8770,45.4,4.6,40.0,5.7,'1111122,1111122,1111122' 
NDBC,ioos:station:NOAA.NDBC:SANF1:1,2015-01-01T09:50:00Z,24.4560,-81.8770,45.4,5.7,20.0,7.2,'1111122,1111122,1111122' 
NDBC,ioos:station:NOAA.NDBC:SANF1:1,2015-01-01T10:50:00Z,24.4560,-81.8770,45.4,6.2,30.0,7.7,'1111122,1111122,1111122' 
NDBC,ioos:station:NOAA.NDBC:SANF1:1,2015-01-01T11:50:00Z,24.4560,-81.8770,45.4,5.1,40.0,5.7,'1111122,1111122,1111122' 
NDBC,ioos:station:NOAA.NDBC:SANF1:1,2015-01-01T12:50:00Z,24.4560,-81.8770,45.4,4.1,60.0,5.1,'1111122,1111122,1111122' 
NDBC,ioos:station:NOAA.NDBC:SANF1:1,2015-01-01T13:50:00Z,24.4560,-81.8770,45.4,4.6,30.0,5.7,'1111122,1111122,1111122' 
NDBC,ioos:station:NOAA.NDBC:SANF1:1,2015-01-01T15:50:00Z,24.4560,-81.8770,45.4,3.6,30.0,4.1,'1111122,1111122,1111122' 
NDBC,ioos:station:NOAA.NDBC:SANF1:1,2015-01-01T16:50:00Z,24.4560,-81.8770,45.4,5.7,10.0,6.2,'1111122,1111122,1111122' 
NDBC,ioos:station:NOAA.NDBC:SANF1:1,2015-01-01T17:50:00Z,24.4560,-81.8770,45.4,5.1,20.0,5.7,'1111122,1111122,1111122' 
NDBC,ioos:station:NOAA.NDBC:SANF1:1,2015-01-01T18:50:00Z,24.4560,-81.8770,45.4,5.7,20.0,6.2,'1111122,1111122,1111122' 
NDBC,ioos:station:NOAA.NDBC:SANF1:1,2015-01-01T20:50:00Z,24.4560,-81.8770,45.4,3.6,60.0,4.1,'1111122,1111122,1111122' 
NDBC,ioos:station:NOAA.NDBC:SANF1:1,2015-01-01T21:50:00Z,24.4560,-81.8770,45.4,4.1,50.0,4.6,'1111122,1111122,1111122' 
NDBC,ioos:station:NOAA.NDBC:SANF1:1,2015-01-01T22:50:00Z,24.4560,-81.8770,45.4,4.1,30.0,5.1,'1111122,1111122,1111122' 
NDBC,ioos:station:NOAA.NDBC:SANF1:1,2015-01-02T00:50:00Z,24.4560,-81.8770,45.4,5.1,80.0,6.2,'1111122,1111122,1111122' 
NDBC,ioos:station:NOAA.NDBC:SANF1:1,2015-01-02T01:50:00Z,24.4560,-81.8770,45.4,5.1,80.0,6.2,'1111122,1111122,1111122' 
NDBC,ioos:station:NOAA.NDBC:SANF1:1,2015-01-02T02:50:00Z,24.4560,-81.8770,45.4,5.7,40.0,6.2,'1111122,1111122,1111122' 
NDBC,ioos:station:NOAA.NDBC:SANF1:1,2015-01-02T03:50:00Z,24.4560,-81.8770,45.4,4.6,50.0,5.7,'1111122,1111122,1111122' 
NDBC,ioos:station:NOAA.NDBC:SANF1:1,2015-01-02T04:50:00Z,24.4560,-81.8770,45.4,5.1,60.0,5.7,'1111122,1111122,1111122' 
NDBC,ioos:station:NOAA.NDBC:SANF1:1,2015-01-02T05:50:00Z,24.4560,-81.8770,45.4,6.7,90.0,7.2,'1111122,1111122,1111122' 
NDBC,ioos:station:NOAA.NDBC:SANF1:1,2015-01-02T06:50:00Z,24.4560,-81.8770,45.4,6.2,110.0,6.7,'1111122,1111122,1111122' 
NDBC,ioos:station:NOAA.NDBC:SANF1:1,2015-01-02T08:50:00Z,24.4560,-81.8770,45.4,6.2,110.0,6.7,'1111122,1111122,1111122' 
NDBC,ioos:station:NOAA.NDBC:SANF1:1,2015-01-02T09:50:00Z,24.4560,-81.8770,45.4,6.7,100.0,7.2,'1111122,1111122,1111122' 
NDBC,ioos:station:NOAA.NDBC:SANF1:1,2015-01-02T11:50:00Z,24.4560,-81.8770,45.4,6.7,100.0,7.7,'1111122,1111122,1111122' 
NDBC,ioos:station:NOAA.NDBC:SANF1:1,2015-01-02T12:50:00Z,24.4560,-81.8770,45.4,6.7,100.0,7.7,'1111122,1111122,1111122' 
NDBC,ioos:station:NOAA.NDBC:SANF1:1,2015-01-02T13:50:00Z,24.4560,-81.8770,45.4,7.2,110.0,8.2,'1111122,1111122,1111122' 
NDBC,ioos:station:NOAA.NDBC:SANF1:1,2015-01-02T14:50:00Z,24.4560,-81.8770,45.4,7.7,120.0,8.8,'1111122,1111122,1111122' 
NDBC,ioos:station:NOAA.NDBC:SANF1:1,2015-01-02T15:50:00Z,24.4560,-81.8770,45.4,7.2,120.0,7.7,'1111122,1111122,1111122' 
NDBC,ioos:station:NOAA.NDBC:SANF1:1,2015-01-02T16:50:00Z,24.4560,-81.8770,45.4,7.2,120.0,8.2,'1111122,1111122,1111122' 
NDBC,ioos:station:NOAA.NDBC:SANF1:1,2015-01-02T17:50:00Z,24.4560,-81.8770,45.4,7.2,110.0,8.2,'1111122,1111122,1111122' 
NDBC,ioos:station:NOAA.NDBC:SANF1:1,2015-01-02T18:50:00Z,24.4560,-81.8770,45.4,8.2,120.0,9.3,'1111122,1111122,1111122' 
NDBC,ioos:station:NOAA.NDBC:SANF1:1,2015-01-02T19:50:00Z,24.4560,-81.8770,45.4,10.3,140.0,12.4,'1111122,1111122,1111122' 
NDBC,ioos:station:NOAA.NDBC:SANF1:1,2015-01-02T20:50:00Z,24.4560,-81.8770,45.4,8.2,120.0,9.3,'1111122,1111122,1111122' 
NDBC,ioos:station:NOAA.NDBC:SANF1:1,2015-01-02T21:50:00Z,24.4560,-81.8770,45.4,8.8,120.0,9.8,'1111122,1111122,1111122' 
NDBC,ioos:station:NOAA.NDBC:SANF1:1,2015-01-02T22:50:00Z,24.4560,-81.8770,45.4,8.8,100.0,9.8,'1111122,1111122,1111122' 
NDBC,ioos:station:NOAA.NDBC:SANF1:1,2015-01-02T23:50:00Z,24.4560,-81.8770,45.4,8.8,110.0,9.8,'1111122,1111122,1111122' 
NDBC,ioos:station:NOAA.NDBC:SANF1:1,2015-01-03T00:50:00Z,24.4560,-81.8770,45.4,9.8,100.0,10.8,'1111122,1111122,1111122' 
NDBC,ioos:station:NOAA.NDBC:SANF1:1,2015-01-03T01:50:00Z,24.4560,-81.8770,45.4,10.3,110.0,11.8,'1111122,1111122,1111122' 
NDBC,ioos:station:NOAA.NDBC:SANF1:1,2015-01-03T02:50:00Z,24.4560,-81.8770,45.4,10.3,110.0,11.8,'1111122,1111122,1111122' 
NDBC,ioos:station:NOAA.NDBC:SANF1:1,2015-01-03T03:50:00Z,24.4560,-81.8770,45.4,9.8,110.0,11.3,'1111122,1111122,1111122' 
NDBC,ioos:station:NOAA.NDBC:SANF1:1,2015-01-03T04:50:00Z,24.4560,-81.8770,45.4,10.3,120.0,11.8,'1111122,1111122,1111122' 
NDBC,ioos:station:NOAA.NDBC:SANF1:1,2015-01-03T05:50:00Z,24.4560,-81.8770,45.4,9.3,120.0,10.8,'1111122,1111122,1111122' 
NDBC,ioos:station:NOAA.NDBC:SANF1:1,2015-01-03T06:50:00Z,24.4560,-81.8770,45.4,9.8,120.0,10.8,'1111122,1111122,1111122' 
NDBC,ioos:station:NOAA.NDBC:SANF1:1,2015-01-03T07:50:00Z,24.4560,-81.8770,45.4,10.3,120.0,12.4,'1111122,1111122,1111122' 
NDBC,ioos:station:NOAA.NDBC:SANF1:1,2015-01-03T08:50:00Z,24.4560,-81.8770,45.4,9.3,120.0,10.8,'1111122,1111122,1111122' 
NDBC,ioos:station:NOAA.NDBC:SANF1:1,2015-01-03T09:50:00Z,24.4560,-81.8770,45.4,10.3,120.0,11.3,'1111122,1111122,1111122' 
NDBC,ioos:station:NOAA.NDBC:SANF1:1,2015-01-03T11:50:00Z,24.4560,-81.8770,45.4,10.3,120.0,11.8,'1111122,1111122,1111122' 
NDBC,ioos:station:NOAA.NDBC:SANF1:1,2015-01-03T12:50:00Z,24.4560,-81.8770,45.4,9.8,120.0,11.3,'1111122,1111122,1111122' 
NDBC,ioos:station:NOAA.NDBC:SANF1:1,2015-01-03T14:50:00Z,24.4560,-81.8770,45.4,10.8,120.0,12.9,'1111122,1111122,1111122' 
NDBC,ioos:station:NOAA.NDBC:SANF1:1,2015-01-03T15:50:00Z,24.4560,-81.8770,45.4,10.3,120.0,11.8,'1111122,1111122,1111122' 
NDBC,ioos:station:NOAA.NDBC:SANF1:1,2015-01-03T16:50:00Z,24.4560,-81.8770,45.4,9.8,120.0,11.3,'1111122,1111122,1111122' 
NDBC,ioos:station:NOAA.NDBC:SANF1:1,2015-01-03T17:50:00Z,24.4560,-81.8770,45.4,9.8,120.0,11.3,'1111122,1111122,1111122' 
NDBC,ioos:station:NOAA.NDBC:SANF1:1,2015-01-03T18:50:00Z,24.4560,-81.8770,45.4,9.8,120.0,10.8,'1111122,1111122,1111122' 
NDBC,ioos:station:NOAA.NDBC:SANF1:1,2015-01-03T19:50:00Z,24.4560,-81.8770,45.4,9.3,120.0,10.8,'1111122,1111122,1111122' 
NDBC,ioos:station:NOAA.NDBC:SANF1:1,2015-01-03T20:50:00Z,24.4560,-81.8770,45.4,9.3,120.0,10.3,'1111122,1111122,1111122' 
NDBC,ioos:station:NOAA.NDBC:SANF1:1,2015-01-03T21:50:00Z,24.4560,-81.8770,45.4,8.8,110.0,10.3,'1111122,1111122,1111122' 
NDBC,ioos:station:NOAA.NDBC:SANF1:1,2015-01-03T22:50:00Z,24.4560,-81.8770,45.4,9.8,110.0,10.8,'1111122,1111122,1111122' 
NDBC,ioos:station:NOAA.NDBC:SANF1:1,2015-01-03T23:50:00Z,24.4560,-81.8770,45.4,9.3,110.0,11.3,'1111122,1111122,1111122' 
NDBC,ioos:station:NOAA.NDBC:SANF1:1,2015-01-04T01:50:00Z,24.4560,-81.8770,45.4,10.8,120.0,12.9,'1111122,1111122,1111122' 
NDBC,ioos:station:NOAA.NDBC:SANF1:1,2015-01-04T02:50:00Z,24.4560,-81.8770,45.4,10.3,120.0,11.8,'1111122,1111122,1111122' 
NDBC,ioos:station:NOAA.NDBC:SANF1:1,2015-01-04T03:50:00Z,24.4560,-81.8770,45.4,10.3,120.0,11.8,'1111122,1111122,1111122' 
NDBC,ioos:station:NOAA.NDBC:SANF1:1,2015-01-04T04:50:00Z,24.4560,-81.8770,45.4,9.8,120.0,11.8,'1111122,1111122,1111122' 
NDBC,ioos:station:NOAA.NDBC:SANF1:1,2015-01-04T05:50:00Z,24.4560,-81.8770,45.4,9.8,130.0,10.8,'1111122,1111122,1111122' 
NDBC,ioos:station:NOAA.NDBC:SANF1:1,2015-01-04T06:50:00Z,24.4560,-81.8770,45.4,8.8,130.0,9.8,'1111122,1111122,1111122' 
NDBC,ioos:station:NOAA.NDBC:SANF1:1,2015-01-04T08:50:00Z,24.4560,-81.8770,45.4,8.8,130.0,10.3,'1111122,1111122,1111122' 
NDBC,ioos:station:NOAA.NDBC:SANF1:1,2015-01-04T09:50:00Z,24.4560,-81.8770,45.4,8.8,130.0,10.3,'1111122,1111122,1111122' 
NDBC,ioos:station:NOAA.NDBC:SANF1:1,2015-01-04T10:50:00Z,24.4560,-81.8770,45.4,8.8,120.0,10.8,'1111122,1111122,1111122' 
NDBC,ioos:station:NOAA.NDBC:SANF1:1,2015-01-04T11:50:00Z,24.4560,-81.8770,45.4,8.8,130.0,9.8,'1111122,1111122,1111122' 
NDBC,ioos:station:NOAA.NDBC:SANF1:1,2015-01-04T12:50:00Z,24.4560,-81.8770,45.4,8.8,130.0,9.8,'1111122,1111122,1111122' 
NDBC,ioos:station:NOAA.NDBC:SANF1:1,2015-01-04T13:50:00Z,24.4560,-81.8770,45.4,9.3,130.0,10.3,'1111122,1111122,1111122' 
NDBC,ioos:station:NOAA.NDBC:SANF1:1,2015-01-04T14:50:00Z,24.4560,-81.8770,45.4,9.3,130.0,10.3,'1111122,1111122,1111122' 
NDBC,ioos:station:NOAA.NDBC:SANF1:1,2015-01-04T15:50:00Z,24.4560,-81.8770,45.4,8.8,140.0,9.8,'1111122,1111122,1111122' 
NDBC,ioos:station:NOAA.NDBC:SANF1:1,2015-01-04T16:50:00Z,24.4560,-81.8770,45.4,7.2,140.0,8.8,'1111122,1111122,1111122' 
NDBC,ioos:station:NOAA.NDBC:SANF1:1,2015-01-04T17:50:00Z,24.4560,-81.8770,45.4,5.7,130.0,6.2,'1111122,1111122,1111122' 
NDBC,ioos:station:NOAA.NDBC:SANF1:1,2015-01-04T19:50:00Z,24.4560,-81.8770,45.4,4.1,100.0,5.1,'1111122,1111122,1111122' 
NDBC,ioos:station:NOAA.NDBC:SANF1:1,2015-01-04T20:50:00Z,24.4560,-81.8770,45.4,4.6,90.0,5.1,'1111122,1111122,1111122' 
NDBC,ioos:station:NOAA.NDBC:SANF1:1,2015-01-04T21:50:00Z,24.4560,-81.8770,45.4,5.1,90.0,6.2,'1111122,1111122,1111122' 
NDBC,ioos:station:NOAA.NDBC:SANF1:1,2015-01-04T22:50:00Z,24.4560,-81.8770,45.4,6.2,90.0,6.7,'1111122,1111122,1111122' 
NDBC,ioos:station:NOAA.NDBC:SANF1:1,2015-01-04T23:50:00Z,24.4560,-81.8770,45.4,6.2,90.0,6.7,'1111122,1111122,1111122' 
NDBC,ioos:station:NOAA.NDBC:SANF1:1,2015-01-05T00:50:00Z,24.4560,-81.8770,45.4,5.7,90.0,6.7,'1111122,1111122,1111122' 
NDBC,ioos:station:NOAA.NDBC:SANF1:1,2015-01-05T02:50:00Z,24.4560,-81.8770,45.4,5.1,90.0,5.7,'1111122,1111122,1111122' 
NDBC,ioos:station:NOAA.NDBC:SANF1:1,2015-01-05T03:50:00Z,24.4560,-81.8770,45.4,5.1,90.0,5.7,'1111122,1111122,1111122' 
NDBC,ioos:station:NOAA.NDBC:SANF1:1,2015-01-05T04:50:00Z,24.4560,-81.8770,45.4,6.2,100.0,7.2,'1111122,1111122,1111122' 
NDBC,ioos:station:NOAA.NDBC:SANF1:1,2015-01-05T05:50:00Z,24.4560,-81.8770,45.4,6.2,100.0,6.7,'1111122,1111122,1111122' 
NDBC,ioos:station:NOAA.NDBC:SANF1:1,2015-01-05T06:50:00Z,24.4560,-81.8770,45.4,6.2,100.0,6.7,'1111122,1111122,1111122' 
NDBC,ioos:station:NOAA.NDBC:SANF1:1,2015-01-05T07:50:00Z,24.4560,-81.8770,45.4,5.7,120.0,6.2,'1111122,1111122,1111122' 
NDBC,ioos:station:NOAA.NDBC:SANF1:1,2015-01-05T08:50:00Z,24.4560,-81.8770,45.4,4.6,100.0,5.7,'1111122,1111122,1111122' 
NDBC,ioos:station:NOAA.NDBC:SANF1:1,2015-01-05T09:50:00Z,24.4560,-81.8770,45.4,4.6,100.0,5.1,'1111122,1111122,1111122' 
NDBC,ioos:station:NOAA.NDBC:SANF1:1,2015-01-05T10:50:00Z,24.4560,-81.8770,45.4,4.6,80.0,5.7,'1111122,1111122,1111122' 
NDBC,ioos:station:NOAA.NDBC:SANF1:1,2015-01-05T11:50:00Z,24.4560,-81.8770,45.4,5.7,100.0,6.2,'1111122,1111122,1111122' 
NDBC,ioos:station:NOAA.NDBC:SANF1:1,2015-01-05T12:50:00Z,24.4560,-81.8770,45.4,5.7,100.0,6.2,'1111122,1111122,1111122' 
NDBC,ioos:station:NOAA.NDBC:SANF1:1,2015-01-05T13:50:00Z,24.4560,-81.8770,45.4,5.1,90.0,5.7,'1111122,1111122,1111122' 
NDBC,ioos:station:NOAA.NDBC:SANF1:1,2015-01-05T14:50:00Z,24.4560,-81.8770,45.4,5.1,90.0,5.7,'1111122,1111122,1111122' 
NDBC,ioos:station:NOAA.NDBC:SANF1:1,2015-01-05T15:50:00Z,24.4560,-81.8770,45.4,6.2,100.0,6.7,'1111122,1111122,1111122' 
NDBC,ioos:station:NOAA.NDBC:SANF1:1,2015-01-05T16:50:00Z,24.4560,-81.8770,45.4,6.2,100.0,6.7,'1111122,1111122,1111122' 
NDBC,ioos:station:NOAA.NDBC:SANF1:1,2015-01-05T18:50:00Z,24.4560,-81.8770,45.4,5.1,80.0,5.7,'1111122,1111122,1111122' 
NDBC,ioos:station:NOAA.NDBC:SANF1:1,2015-01-05T19:50:00Z,24.4560,-81.8770,45.4,5.7,70.0,6.2,'1111122,1111122,1111122' 
NDBC,ioos:station:NOAA.NDBC:SANF1:1,2015-01-05T20:50:00Z,24.4560,-81.8770,45.4,5.7,70.0,6.7,'1111122,1111122,1111122' 
NDBC,ioos:station:NOAA.NDBC:SANF1:1,2015-01-05T21:50:00Z,24.4560,-81.8770,45.4,5.7,60.0,6.7,'1111122,1111122,1111122' 
NDBC,ioos:station:NOAA.NDBC:SANF1:1,2015-01-05T22:50:00Z,24.4560,-81.8770,45.4,6.2,80.0,6.7,'1111122,1111122,1111122' 
NDBC,ioos:station:NOAA.NDBC:SANF1:1,2015-01-05T23:50:00Z,24.4560,-81.8770,45.4,6.2,60.0,9.3,'1111122,1111122,1111122' 
NDBC,ioos:station:NOAA.NDBC:SANF1:1,2015-01-06T00:50:00Z,24.4560,-81.8770,45.4,8.2,40.0,9.3,'1111122,1111122,1111122' 
NDBC,ioos:station:NOAA.NDBC:SANF1:1,2015-01-06T01:50:00Z,24.4560,-81.8770,45.4,8.8,30.0,9.3,'1111122,1111122,1111122' 
NDBC,ioos:station:NOAA.NDBC:SANF1:1,2015-01-06T02:50:00Z,24.4560,-81.8770,45.4,7.2,40.0,8.2,'1111122,1111122,1111122' 
NDBC,ioos:station:NOAA.NDBC:SANF1:1,2015-01-06T03:50:00Z,24.4560,-81.8770,45.4,6.2,50.0,7.2,'1111122,1111122,1111122' 
NDBC,ioos:station:NOAA.NDBC:SANF1:1,2015-01-06T04:50:00Z,24.4560,-81.8770,45.4,5.7,50.0,6.7,'1111122,1111122,1111122' 
NDBC,ioos:station:NOAA.NDBC:SANF1:1,2015-01-06T05:50:00Z,24.4560,-81.8770,45.4,5.1,40.0,6.2,'1111122,1111122,1111122' 
NDBC,ioos:station:NOAA.NDBC:SANF1:1,2015-01-06T06:50:00Z,24.4560,-81.8770,45.4,7.7,70.0,8.8,'1111122,1111122,1111122' 
NDBC,ioos:station:NOAA.NDBC:SANF1:1,2015-01-06T07:50:00Z,24.4560,-81.8770,45.4,7.2,40.0,8.2,'1111122,1111122,1111122' 
NDBC,ioos:station:NOAA.NDBC:SANF1:1,2015-01-06T08:50:00Z,24.4560,-81.8770,45.4,7.2,50.0,8.2,'1111122,1111122,1111122' 
NDBC,ioos:station:NOAA.NDBC:SANF1:1,2015-01-06T09:50:00Z,24.4560,-81.8770,45.4,7.2,50.0,8.2,'1111122,1111122,1111122' 
NDBC,ioos:station:NOAA.NDBC:SANF1:1,2015-01-06T10:50:00Z,24.4560,-81.8770,45.4,6.7,40.0,7.7,'1111122,1111122,1111122' 
NDBC,ioos:station:NOAA.NDBC:SANF1:1,2015-01-06T11:50:00Z,24.4560,-81.8770,45.4,8.2,50.0,9.3,'1111122,1111122,1111122' 
NDBC,ioos:station:NOAA.NDBC:SANF1:1,2015-01-06T12:50:00Z,24.4560,-81.8770,45.4,8.2,40.0,9.8,'1111122,1111122,1111122' 
NDBC,ioos:station:NOAA.NDBC:SANF1:1,2015-01-06T13:50:00Z,24.4560,-81.8770,45.4,8.2,40.0,9.3,'1111122,1111122,1111122' 
NDBC,ioos:station:NOAA.NDBC:SANF1:1,2015-01-06T15:50:00Z,24.4560,-81.8770,45.4,8.2,50.0,9.3,'1111122,1111122,1111122' 
NDBC,ioos:station:NOAA.NDBC:SANF1:1,2015-01-06T16:50:00Z,24.4560,-81.8770,45.4,8.2,70.0,9.8,'1111122,1111122,1111122' 
NDBC,ioos:station:NOAA.NDBC:SANF1:1,2015-01-06T17:50:00Z,24.4560,-81.8770,45.4,7.7,70.0,8.8,'1111122,1111122,1111122' 
NDBC,ioos:station:NOAA.NDBC:SANF1:1,2015-01-06T18:50:00Z,24.4560,-81.8770,45.4,6.7,80.0,8.2,'1111122,1111122,1111122' 
NDBC,ioos:station:NOAA.NDBC:SANF1:1,2015-01-06T20:50:00Z,24.4560,-81.8770,45.4,6.2,100.0,7.2,'1111122,1111122,1111122' 
NDBC,ioos:station:NOAA.NDBC:SANF1:1,2015-01-06T21:50:00Z,24.4560,-81.8770,45.4,5.7,90.0,6.7,'1111122,1111122,1111122' 
NDBC,ioos:station:NOAA.NDBC:SANF1:1,2015-01-06T22:50:00Z,24.4560,-81.8770,45.4,5.1,80.0,6.2,'1111122,1111122,1111122' 
NDBC,ioos:station:NOAA.NDBC:SANF1:1,2015-01-07T00:50:00Z,24.4560,-81.8770,45.4,5.1,50.0,5.7,'1111122,1111122,1111122' 
NDBC,ioos:station:NOAA.NDBC:SANF1:1,2015-01-07T01:50:00Z,24.4560,-81.8770,45.4,6.2,20.0,7.2,'1111122,1111122,1111122' 
NDBC,ioos:station:NOAA.NDBC:SANF1:1,2015-01-07T02:50:00Z,24.4560,-81.8770,45.4,6.2,30.0,6.7,'1111122,1111122,1111122' 
NDBC,ioos:station:NOAA.NDBC:SANF1:1,2015-01-07T03:50:00Z,24.4560,-81.8770,45.4,8.2,20.0,9.3,'1111122,1111122,1111122' 
NDBC,ioos:station:NOAA.NDBC:SANF1:1,2015-01-07T04:50:00Z,24.4560,-81.8770,45.4,6.7,30.0,7.7,'1111122,1111122,1111122' 
NDBC,ioos:station:NOAA.NDBC:SANF1:1,2015-01-07T05:50:00Z,24.4560,-81.8770,45.4,8.2,20.0,9.3,'1111122,1111122,1111122' 
NDBC,ioos:station:NOAA.NDBC:SANF1:1,2015-01-07T06:50:00Z,24.4560,-81.8770,45.4,8.2,20.0,9.8,'1111122,1111122,1111122' 
NDBC,ioos:station:NOAA.NDBC:SANF1:1,2015-01-07T07:50:00Z,24.4560,-81.8770,45.4,8.8,20.0,9.8,'1111122,1111122,1111122' 
NDBC,ioos:station:NOAA.NDBC:SANF1:1,2015-01-07T08:50:00Z,24.4560,-81.8770,45.4,8.2,20.0,9.3,'1111122,1111122,1111122' 
NDBC,ioos:station:NOAA.NDBC:SANF1:1,2015-01-07T09:50:00Z,24.4560,-81.8770,45.4,7.7,20.0,9.3,'1111122,1111122,1111122' 
NDBC,ioos:station:NOAA.NDBC:SANF1:1,2015-01-07T10:50:00Z,24.4560,-81.8770,45.4,9.3,20.0,10.8,'1111122,1111122,1111122' 
NDBC,ioos:station:NOAA.NDBC:SANF1:1,2015-01-07T11:50:00Z,24.4560,-81.8770,45.4,8.2,10.0,9.8,'1111122,1111122,1111122' 
NDBC,ioos:station:NOAA.NDBC:SANF1:1,2015-01-07T12:50:00Z,24.4560,-81.8770,45.4,7.7,20.0,8.8,'1111122,1111122,1111122' 
NDBC,ioos:station:NOAA.NDBC:SANF1:1,2015-01-07T13:50:00Z,24.4560,-81.8770,45.4,6.2,10.0,7.2,'1111122,1111122,1111122' 
NDBC,ioos:station:NOAA.NDBC:SANF1:1,2015-01-07T14:50:00Z,24.4560,-81.8770,45.4,6.7,10.0,7.7,'1111122,1111122,1111122' 
NDBC,ioos:station:NOAA.NDBC:SANF1:1,2015-01-07T15:50:00Z,24.4560,-81.8770,45.4,7.2,10.0,8.8,'1111122,1111122,1111122' 
NDBC,ioos:station:NOAA.NDBC:SANF1:1,2015-01-07T16:50:00Z,24.4560,-81.8770,45.4,7.2,20.0,8.2,'1111122,1111122,1111122' 
NDBC,ioos:station:NOAA.NDBC:SANF1:1,2015-01-07T17:50:00Z,24.4560,-81.8770,45.4,6.2,10.0,7.2,'1111122,1111122,1111122' 
NDBC,ioos:station:NOAA.NDBC:SANF1:1,2015-01-07T18:50:00Z,24.4560,-81.8770,45.4,6.7,360.0,8.2,'1111122,1111122,1111122' 
NDBC,ioos:station:NOAA.NDBC:SANF1:1,2015-01-07T19:50:00Z,24.4560,-81.8770,45.4,8.2,360.0,9.3,'1111122,1111122,1111122' 
NDBC,ioos:station:NOAA.NDBC:SANF1:1,2015-01-07T20:50:00Z,24.4560,-81.8770,45.4,8.8,350.0,10.3,'1111122,1111122,1111122' 
NDBC,ioos:station:NOAA.NDBC:SANF1:1,2015-01-07T22:50:00Z,24.4560,-81.8770,45.4,6.7,10.0,7.7,'1111122,1111122,1111122' 
NDBC,ioos:station:NOAA.NDBC:SANF1:1,2015-01-07T23:50:00Z,24.4560,-81.8770,45.4,5.1,360.0,6.2,'1111122,1111122,1111122' 
NDBC,ioos:station:NOAA.NDBC:SANF1:1,2015-01-08T00:50:00Z,24.4560,-81.8770,45.4,8.2,350.0,9.8,'1111122,1111122,1111122' 
NDBC,ioos:station:NOAA.NDBC:SANF1:1,2015-01-08T01:50:00Z,24.4560,-81.8770,45.4,9.3,350.0,10.8,'1111122,1111122,1111122' 
NDBC,ioos:station:NOAA.NDBC:SANF1:1,2015-01-08T02:50:00Z,24.4560,-81.8770,45.4,9.8,350.0,11.3,'1111122,1111122,1111122' 
NDBC,ioos:station:NOAA.NDBC:SANF1:1,2015-01-08T03:50:00Z,24.4560,-81.8770,45.4,10.8,350.0,12.9,'1111122,1111122,1111122' 
NDBC,ioos:station:NOAA.NDBC:SANF1:1,2015-01-08T04:50:00Z,24.4560,-81.8770,45.4,11.3,360.0,13.9,'1111122,1111122,1111122' 
NDBC,ioos:station:NOAA.NDBC:SANF1:1,2015-01-08T05:50:00Z,24.4560,-81.8770,45.4,12.9,360.0,14.4,'1111122,1111122,1111122' 
NDBC,ioos:station:NOAA.NDBC:SANF1:1,2015-01-08T06:50:00Z,24.4560,-81.8770,45.4,13.9,360.0,16.0,'1111122,1111122,1111122' 
NDBC,ioos:station:NOAA.NDBC:SANF1:1,2015-01-08T07:50:00Z,24.4560,-81.8770,45.4,13.9,360.0,17.0,'1111122,1111122,1111122' 
NDBC,ioos:station:NOAA.NDBC:SANF1:1,2015-01-08T08:50:00Z,24.4560,-81.8770,45.4,14.9,10.0,17.0,'1111122,1111122,1111122' 
NDBC,ioos:station:NOAA.NDBC:SANF1:1,2015-01-08T09:50:00Z,24.4560,-81.8770,45.4,13.9,10.0,17.0,'1111122,1111122,1111122' 
NDBC,ioos:station:NOAA.NDBC:SANF1:1,2015-01-08T10:50:00Z,24.4560,-81.8770,45.4,14.4,20.0,17.0,'1111122,1111122,1111122' 
NDBC,ioos:station:NOAA.NDBC:SANF1:1,2015-01-08T11:50:00Z,24.4560,-81.8770,45.4,13.9,30.0,16.5,'1111122,1111122,1111122' 
NDBC,ioos:station:NOAA.NDBC:SANF1:1,2015-01-08T12:50:00Z,24.4560,-81.8770,45.4,14.4,30.0,17.0,'1111122,1111122,1111122' 
NDBC,ioos:station:NOAA.NDBC:SANF1:1,2015-01-08T14:50:00Z,24.4560,-81.8770,45.4,13.4,40.0,14.9,'1111122,1111122,1111122' 
NDBC,ioos:station:NOAA.NDBC:SANF1:1,2015-01-08T15:50:00Z,24.4560,-81.8770,45.4,11.8,40.0,14.4,'1111122,1111122,1111122' 
NDBC,ioos:station:NOAA.NDBC:SANF1:1,2015-01-08T16:50:00Z,24.4560,-81.8770,45.4,9.8,40.0,11.8,'1111122,1111122,1111122' 
NDBC,ioos:station:NOAA.NDBC:SANF1:1,2015-01-08T17:50:00Z,24.4560,-81.8770,45.4,9.8,30.0,11.3,'1111122,1111122,1111122' 
NDBC,ioos:station:NOAA.NDBC:SANF1:1,2015-01-08T18:50:00Z,24.4560,-81.8770,45.4,8.8,40.0,11.3,'1111122,1111122,1111122' 
NDBC,ioos:station:NOAA.NDBC:SANF1:1,2015-01-08T19:50:00Z,24.4560,-81.8770,45.4,8.2,50.0,9.8,'1111122,1111122,1111122' 
NDBC,ioos:station:NOAA.NDBC:SANF1:1,2015-01-08T20:50:00Z,24.4560,-81.8770,45.4,8.2,50.0,9.8,'1111122,1111122,1111122' 
NDBC,ioos:station:NOAA.NDBC:SANF1:1,2015-01-08T21:50:00Z,24.4560,-81.8770,45.4,7.2,50.0,9.3,'1111122,1111122,1111122' 
NDBC,ioos:station:NOAA.NDBC:SANF1:1,2015-01-08T23:50:00Z,24.4560,-81.8770,45.4,10.8,60.0,12.9,'1111122,1111122,1111122' 
NDBC,ioos:station:NOAA.NDBC:SANF1:1,2015-01-09T00:50:00Z,24.4560,-81.8770,45.4,10.8,50.0,12.4,'1111122,1111122,1111122' 
NDBC,ioos:station:NOAA.NDBC:SANF1:1,2015-01-09T01:50:00Z,24.4560,-81.8770,45.4,10.8,50.0,12.4,'1111122,1111122,1111122' 
NDBC,ioos:station:NOAA.NDBC:SANF1:1,2015-01-09T02:50:00Z,24.4560,-81.8770,45.4,11.3,60.0,12.9,'1111122,1111122,1111122' 
NDBC,ioos:station:NOAA.NDBC:SANF1:1,2015-01-09T03:50:00Z,24.4560,-81.8770,45.4,9.8,60.0,11.3,'1111122,1111122,1111122' 
NDBC,ioos:station:NOAA.NDBC:SANF1:1,2015-01-09T04:50:00Z,24.4560,-81.8770,45.4,9.3,50.0,11.3,'1111122,1111122,1111122' 
NDBC,ioos:station:NOAA.NDBC:SANF1:1,2015-01-09T05:50:00Z,24.4560,-81.8770,45.4,8.8,60.0,9.8,'1111122,1111122,1111122' 
NDBC,ioos:station:NOAA.NDBC:SANF1:1,2015-01-09T06:50:00Z,24.4560,-81.8770,45.4,8.2,60.0,9.8,'1111122,1111122,1111122' 
NDBC,ioos:station:NOAA.NDBC:SANF1:1,2015-01-09T07:50:00Z,24.4560,-81.8770,45.4,7.2,60.0,8.8,'1111122,1111122,1111122' 
NDBC,ioos:station:NOAA.NDBC:SANF1:1,2015-01-09T08:50:00Z,24.4560,-81.8770,45.4,7.2,60.0,8.8,'1111122,1111122,1111122' 
NDBC,ioos:station:NOAA.NDBC:SANF1:1,2015-01-09T09:50:00Z,24.4560,-81.8770,45.4,6.7,60.0,8.2,'1111122,1111122,1111122' 
NDBC,ioos:station:NOAA.NDBC:SANF1:1,2015-01-09T10:50:00Z,24.4560,-81.8770,45.4,6.7,120.0,8.2,'1111122,1111122,1111122' 
NDBC,ioos:station:NOAA.NDBC:SANF1:1,2015-01-09T11:50:00Z,24.4560,-81.8770,45.4,7.7,120.0,8.8,'1111122,1111122,1111122' 
NDBC,ioos:station:NOAA.NDBC:SANF1:1,2015-01-09T12:50:00Z,24.4560,-81.8770,45.4,7.2,120.0,8.8,'1111122,1111122,1111122' 
NDBC,ioos:station:NOAA.NDBC:SANF1:1,2015-01-09T13:50:00Z,24.4560,-81.8770,45.4,6.2,110.0,7.2,'1111122,1111122,1111122' 
NDBC,ioos:station:NOAA.NDBC:SANF1:1,2015-01-09T14:50:00Z,24.4560,-81.8770,45.4,6.7,120.0,7.7,'1111122,1111122,1111122' 
NDBC,ioos:station:NOAA.NDBC:SANF1:1,2015-01-09T15:50:00Z,24.4560,-81.8770,45.4,6.7,120.0,7.7,'1111122,1111122,1111122' 
NDBC,ioos:station:NOAA.NDBC:SANF1:1,2015-01-09T16:50:00Z,24.4560,-81.8770,45.4,6.2,120.0,8.2,'1111122,1111122,1111122' 
NDBC,ioos:station:NOAA.NDBC:SANF1:1,2015-01-09T17:50:00Z,24.4560,-81.8770,45.4,5.7,110.0,6.2,'1111122,1111122,1111122' 
NDBC,ioos:station:NOAA.NDBC:SANF1:1,2015-01-09T18:50:00Z,24.4560,-81.8770,45.4,5.1,110.0,6.2,'1111122,1111122,1111122' 
NDBC,ioos:station:NOAA.NDBC:SANF1:1,2015-01-09T19:50:00Z,24.4560,-81.8770,45.4,5.1,100.0,6.7,'1111122,1111122,1111122' 
NDBC,ioos:station:NOAA.NDBC:SANF1:1,2015-01-09T20:50:00Z,24.4560,-81.8770,45.4,5.7,20.0,9.8,'1111122,1111122,1111122' 
NDBC,ioos:station:NOAA.NDBC:SANF1:1,2015-01-09T21:50:00Z,24.4560,-81.8770,45.4,8.8,360.0,10.3,'1111122,1111122,1111122' 
NDBC,ioos:station:NOAA.NDBC:SANF1:1,2015-01-09T22:50:00Z,24.4560,-81.8770,45.4,9.8,360.0,10.8,'1111122,1111122,1111122' 
NDBC,ioos:station:NOAA.NDBC:SANF1:1,2015-01-09T23:50:00Z,24.4560,-81.8770,45.4,10.3,10.0,11.8,'1111122,1111122,1111122' 
NDBC,ioos:station:NOAA.NDBC:SANF1:1,2015-01-10T00:50:00Z,24.4560,-81.8770,45.4,9.3,360.0,10.3,'1111122,1111122,1111122' 